Vilalleons (Osona)





Hora UTC 22:05
Temperatura 20.8 ºC
Humedad 82.0 %
Presión 1014.7 hPa
Pluja 0.0 mm
Velocidad viento 0.0 km/h
Dirección viento ESE

Datos diarios 2024-07-24



Hora UTC (invierno +1h; verano +2h)
Temperatura (ºC) Humedad (%) Presión (hPa) Velocidad viento (km/h) Precipitación (mm)
Hora UTC Aire Humedad Presión Vel. Dir. Vel. Max Dir. Intent. máx 5 min.
00:05 19.9 85.0 1018.7 1.6 SE 1.6 0.0
00:10 19.8 85.0 1018.7 1.6 SE 3.2 0.0
00:15 19.7 86.0 1018.6 3.2 SE 3.2 0.0
00:20 19.7 86.0 1018.6 0.0 SE 3.2 0.0
00:25 19.6 87.0 1018.6 3.2 SE 3.2 0.0
00:30 19.6 87.0 1018.5 1.6 SE 4.8 0.0
00:35 19.5 87.0 1018.5 1.6 SE 4.8 0.0
00:40 19.4 87.0 1018.3 3.2 SE 3.2 0.0
00:45 19.4 87.0 1018.4 0.0 SE 3.2 0.0
00:50 19.3 88.0 1018.4 3.2 SE 3.2 0.0
00:55 19.3 88.0 1018.3 1.6 SE 3.2 0.0
01:00 19.2 88.0 1018.2 3.2 SE 3.2 0.0
01:05 19.1 88.0 1018.2 0.0 SE 3.2 0.0
01:10 19.1 89.0 1018.2 1.6 SE 1.6 0.0
01:15 19.0 89.0 1018.2 3.2 SE 3.2 0.0
01:20 18.9 89.0 1018.4 0.0 SE 3.2 0.0
01:25 18.8 89.0 1018.5 3.2 SE 4.8 0.0
01:30 18.7 89.0 1018.5 3.2 SE 4.8 0.0
01:35 18.6 89.0 1018.3 1.6 SE 3.2 0.0
01:40 18.7 90.0 1018.3 0.0 SE 3.2 0.0
01:45 18.7 90.0 1018.3 0.0 SE 3.2 0.0
01:50 18.7 90.0 1018.5 0.0 SE 1.6 0.0
01:55 18.6 90.0 1018.3 1.6 SE 1.6 0.0
02:00 18.5 90.0 1018.2 1.6 SE 3.2 0.0
02:05 18.4 90.0 1018.2 0.0 SE 3.2 0.0
02:10 18.4 91.0 1018.1 0.0 SE 3.2 0.0
02:15 18.4 91.0 1018.1 3.2 SE 3.2 0.0
02:20 18.3 91.0 1018.0 1.6 SE 3.2 0.0
02:25 18.3 91.0 1018.0 0.0 SE 3.2 0.0
02:30 18.3 91.0 1017.9 0.0 SE 1.6 0.0
02:35 18.2 91.0 1018.0 0.0 SE 1.6 0.0
02:40 18.2 91.0 1017.8 0.0 SE 1.6 0.0
02:45 18.1 91.0 1017.9 0.0 SE 0.0 0.0
02:50 18.1 91.0 1017.8 0.0 SE 0.0 0.0
02:55 17.9 91.0 1017.9 0.0 SE 0.0 0.0
03:00 17.9 91.0 1017.8 0.0 SE 0.0 0.0
03:05 17.8 91.0 1017.7 0.0 SE 0.0 0.0
03:10 17.7 91.0 1017.7 1.6 SE 3.2 0.0
03:15 17.6 91.0 1017.5 0.0 SE 4.8 0.0
03:20 17.7 91.0 1017.6 3.2 SE 4.8 0.0
03:25 17.6 91.0 1017.6 1.6 SE 4.8 0.0
03:30 17.5 91.0 1017.6 0.0 SE 3.2 0.0
03:35 17.5 91.0 1017.7 0.0 SE 3.2 0.0
03:40 17.4 91.0 1017.7 0.0 SE 3.2 0.0
03:45 17.4 91.0 1017.7 1.6 SE 3.2 0.0
03:50 17.3 91.0 1017.7 1.6 SE 3.2 0.0
03:55 17.2 92.0 1017.7 0.0 SE 3.2 0.0
04:00 17.2 92.0 1017.8 0.0 SE 3.2 0.0
04:05 17.2 92.0 1017.8 1.6 SE 4.8 0.0
04:10 17.2 92.0 1017.8 1.6 SE 4.8 0.0
04:15 17.1 92.0 1017.8 3.2 SE 3.2 0.0
04:20 17.1 92.0 1017.8 1.6 SE 4.8 0.0
04:25 17.1 92.0 1017.7 0.0 SE 4.8 0.0
04:30 17.0 92.0 1017.7 3.2 SE 4.8 0.0
04:35 16.9 92.0 1017.7 1.6 SE 3.2 0.0
04:40 16.8 92.0 1017.7 0.0 SE 3.2 0.0
04:45 16.8 92.0 1017.7 1.6 SE 3.2 0.0
04:50 16.8 92.0 1017.7 0.0 SE 3.2 0.0
04:55 16.8 92.0 1017.7 0.0 SE 3.2 0.0
05:00 16.8 92.0 1017.7 1.6 SE 3.2 0.0
05:05 16.8 93.0 1017.6 0.0 SE 3.2 0.0
05:10 16.9 93.0 1017.7 0.0 SE 4.8 0.0
05:15 16.9 93.0 1017.7 0.0 SE 4.8 0.0
05:20 17.1 93.0 1017.8 1.6 SE 4.8 0.0
05:25 17.1 93.0 1017.8 0.0 SE 4.8 0.0
05:30 17.1 93.0 1017.7 0.0 SE 0.0 0.0
05:35 17.2 93.0 1017.7 0.0 SE 3.2 0.0
05:40 17.2 93.0 1017.7 0.0 SE 3.2 0.0
05:45 17.3 93.0 1017.7 0.0 SE 3.2 0.0
05:50 17.3 94.0 1017.7 0.0 SE 3.2 0.0
05:55 17.4 94.0 1017.7 0.0 SE 1.6 0.0
06:00 17.6 94.0 1017.6 0.0 SE 1.6 0.0
06:05 17.7 94.0 1017.6 1.6 SE 3.2 0.0
06:10 17.8 94.0 1017.5 0.0 SE 3.2 0.0
06:15 17.9 94.0 1017.7 0.0 SE 3.2 0.0
06:20 18.1 94.0 1017.6 0.0 SE 3.2 0.0
06:25 18.2 94.0 1017.6 0.0 SE 3.2 0.0
06:30 18.4 94.0 1017.4 0.0 SE 1.6 0.0
06:35 18.7 94.0 1017.6 0.0 SE 1.6 0.0
06:40 18.9 94.0 1017.6 1.6 SE 1.6 0.0
06:45 19.1 93.0 1017.8 1.6 SE 1.6 0.0
06:50 19.2 92.0 1017.6 0.0 SE 3.2 0.0
06:55 19.4 91.0 1017.8 1.6 SE 3.2 0.0
07:00 19.7 89.0 1017.7 1.6 ESE 4.8 0.0
07:05 20.0 88.0 1017.7 3.2 NNE 4.8 0.0
07:10 20.3 87.0 1017.8 0.0 N 3.2 0.0
07:15 20.7 86.0 1017.7 1.6 NNW 4.8 0.0
07:20 20.9 85.0 1018.0 1.6 WNW 6.4 0.0
07:25 21.3 83.0 1017.9 1.6 NW 6.4 0.0
07:30 21.7 82.0 1017.9 0.0 NNE 4.8 0.0
07:35 21.9 80.0 1017.9 1.6 NNW 4.8 0.0
07:40 22.1 78.0 1017.9 1.6 N 4.8 0.0
07:45 22.4 76.0 1017.8 0.0 NNW 4.8 0.0
07:50 22.7 77.0 1017.9 0.0 NNW 3.2 0.0
07:55 22.9 75.0 1017.9 0.0 NNW 3.2 0.0
08:00 23.3 74.0 1018.0 3.2 NW 4.8 0.0
08:05 23.8 71.0 1018.0 1.6 NNW 4.8 0.0
08:10 24.2 71.0 1018.0 4.8 NNW 6.4 0.0
08:15 24.5 70.0 1017.9 3.2 NNW 6.4 0.0
08:20 24.8 68.0 1017.9 0.0 NW 9.7 0.0
08:25 25.2 67.0 1017.8 0.0 NW 9.7 0.0
08:30 25.5 67.0 1017.8 1.6 WNW 4.8 0.0
08:35 25.8 62.0 1017.9 3.2 NNE 6.4 0.0
08:40 26.2 59.0 1017.7 1.6 WNW 6.4 0.0
08:45 26.8 62.0 1017.9 6.4 SSW 8.0 0.0
08:50 27.4 56.0 1017.9 1.6 SW 8.0 0.0
08:55 28.1 58.0 1017.9 1.6 WSW 6.4 0.0
09:00 28.4 54.0 1018.1 6.4 SW 14.5 0.0
09:05 28.7 53.0 1018.0 3.2 SW 14.5 0.0
09:10 28.9 51.0 1017.9 3.2 SW 11.3 0.0
09:15 29.3 50.0 1017.9 3.2 WSW 11.3 0.0
09:20 29.7 48.0 1017.9 3.2 SW 11.3 0.0
09:25 30.0 47.0 1018.0 3.2 SW 11.3 0.0
09:30 30.1 49.0 1017.9 3.2 N 11.3 0.0
09:35 30.3 49.0 1018.0 3.2 SSE 12.9 0.0
09:40 30.7 47.0 1017.9 3.2 SSE 12.9 0.0
09:45 30.9 46.0 1017.9 3.2 S 12.9 0.0
09:50 31.2 45.0 1018.1 4.8 SW 11.3 0.0
09:55 31.4 42.0 1017.9 4.8 SW 14.5 0.0
10:00 31.7 45.0 1017.9 6.4 SSW 14.5 0.0
10:05 32.0 43.0 1017.9 6.4 WNW 9.7 0.0
10:10 32.1 43.0 1018.1 9.7 WSW 12.9 0.0
10:15 32.1 45.0 1017.9 3.2 SSW 12.9 0.0
10:20 32.3 40.0 1017.9 4.8 SW 11.3 0.0
10:25 32.3 42.0 1017.9 3.2 ESE 14.5 0.0
10:30 32.0 42.0 1017.8 4.8 S 19.3 0.0
10:35 32.1 42.0 1017.8 3.2 SSE 19.3 0.0
10:40 32.3 41.0 1017.7 3.2 S 11.3 0.0
10:45 32.8 41.0 1017.9 6.4 SE 8.0 0.0
10:50 32.9 40.0 1017.7 3.2 SW 8.0 0.0
10:55 33.2 42.0 1017.6 1.6 SSW 14.5 0.0
11:00 33.3 39.0 1017.6 1.6 W 14.5 0.0
11:05 33.2 39.0 1017.7 3.2 SW 11.3 0.0
11:10 33.3 40.0 1017.5 11.3 WSW 11.3 0.0
11:15 33.2 42.0 1017.4 4.8 SW 12.9 0.0
11:20 33.4 42.0 1017.5 8.0 SE 11.3 0.0
11:25 33.6 40.0 1017.4 8.0 SSE 14.5 0.0
11:30 33.6 41.0 1017.4 8.0 SSW 14.5 0.0
11:35 33.8 42.0 1017.3 3.2 SSW 12.9 0.0
11:40 33.9 40.0 1017.1 4.8 W 11.3 0.0
11:45 34.2 38.0 1017.0 4.8 WSW 9.7 0.0
11:50 34.0 37.0 1016.9 3.2 WSW 12.9 0.0
11:55 34.2 39.0 1016.8 0.0 SW 12.9 0.0
12:00 34.3 38.0 1016.6 1.6 WNW 12.9 0.0
12:05 34.2 38.0 1016.5 3.2 S 12.9 0.0
12:10 34.3 36.0 1016.5 1.6 SSW 11.3 0.0
12:15 34.1 39.0 1016.5 8.0 SW 14.5 0.0
12:20 34.3 38.0 1016.3 6.4 SW 16.1 0.0
12:25 34.6 36.0 1016.2 8.0 SSW 16.1 0.0
12:30 34.8 36.0 1016.1 6.4 SE 12.9 0.0
12:35 34.9 39.0 1016.1 9.7 SW 16.1 0.0
12:40 35.0 39.0 1016.0 1.6 ESE 12.9 0.0
12:45 34.7 37.0 1015.8 3.2 SSE 11.3 0.0
12:50 34.7 38.0 1015.8 3.2 S 11.3 0.0
12:55 34.8 37.0 1015.7 1.6 W 12.9 0.0
13:00 35.0 39.0 1015.4 6.4 SSE 12.9 0.0
13:05 35.1 40.0 1015.5 9.7 SW 12.9 0.0
13:10 35.0 39.0 1015.3 1.6 SW 11.3 0.0
13:15 35.1 38.0 1015.5 4.8 SW 11.3 0.0
13:20 35.1 36.0 1015.5 3.2 SW 12.9 0.0
13:25 34.7 37.0 1015.3 1.6 NW 12.9 0.0
13:30 34.3 41.0 1015.1 1.6 WSW 11.3 0.0
13:35 34.3 42.0 1015.1 1.6 SSE 14.5 0.0
13:40 34.7 42.0 1014.9 4.8 S 14.5 0.0
13:45 34.8 39.0 1015.0 9.7 ESE 11.3 0.0
13:50 34.8 44.0 1014.9 14.5 SE 17.7 0.0
13:55 33.8 46.0 1014.7 14.5 E 20.9 0.0
14:00 33.1 48.0 1014.9 4.8 ENE 25.7 0.0
14:05 32.4 47.0 1014.9 14.5 SE 25.7 0.0
14:10 32.2 49.0 1014.9 4.8 E 24.1 0.0
14:15 32.3 47.0 1014.7 6.4 SE 20.9 0.0
14:20 32.4 46.0 1014.5 8.0 E 17.7 0.0
14:25 32.6 47.0 1014.5 9.7 SSE 17.7 0.0
14:30 32.7 46.0 1014.3 9.7 SE 16.1 0.0
14:35 32.8 45.0 1014.3 11.3 ESE 16.1 0.0
14:40 33.0 46.0 1014.3 6.4 SE 16.1 0.0
14:45 32.7 47.0 1014.3 3.2 ESE 16.1 0.0
14:50 32.9 46.0 1014.3 12.9 SSE 12.9 0.0
14:55 32.9 45.0 1014.3 9.7 SSE 16.1 0.0
15:00 32.6 46.0 1014.5 3.2 SSE 19.3 0.0
15:05 32.5 48.0 1014.4 1.6 ESE 14.5 0.0
15:10 32.6 49.0 1014.3 4.8 ESE 14.5 0.0
15:15 32.4 49.0 1014.3 6.4 ESE 16.1 0.0
15:20 32.3 49.0 1014.4 6.4 ESE 19.3 0.0
15:25 32.2 50.0 1014.3 1.6 SE 19.3 0.0
15:30 31.9 50.0 1014.2 3.2 SE 14.5 0.0
15:35 31.4 51.0 1014.3 6.4 ESE 14.5 0.0
15:40 31.0 52.0 1014.1 4.8 NNE 11.3 0.0
15:45 30.8 54.0 1014.0 6.4 SSE 11.3 0.0
15:50 30.3 54.0 1013.9 1.6 ESE 12.9 0.0
15:55 30.1 55.0 1014.1 8.0 SE 17.7 0.0
16:00 29.6 57.0 1014.1 3.2 SE 17.7 0.0
16:05 29.4 58.0 1014.0 3.2 SSE 14.5 0.0
16:10 29.6 57.0 1014.0 4.8 SE 12.9 0.0
16:15 29.6 56.0 1014.0 6.4 SE 12.9 0.0
16:20 29.7 57.0 1013.8 6.4 SE 12.9 0.0
16:25 29.7 55.0 1013.8 4.8 SSE 11.3 0.0
16:30 29.7 57.0 1013.7 6.4 SE 12.9 0.0
16:35 29.7 57.0 1013.7 4.8 SE 14.5 0.0
16:40 29.7 57.0 1013.7 4.8 ESE 12.9 0.0
16:45 29.7 58.0 1013.7 4.8 SE 14.5 0.0
16:50 29.7 59.0 1013.7 1.6 ESE 14.5 0.0
16:55 29.6 58.0 1013.8 11.3 S 17.7 0.0
17:00 29.2 58.0 1013.8 11.3 ESE 17.7 0.0
17:05 28.9 59.0 1013.6 6.4 ESE 17.7 0.0
17:10 28.9 61.0 1013.5 3.2 ESE 16.1 0.0
17:15 28.8 60.0 1013.5 6.4 ESE 12.9 0.0
17:20 28.6 60.0 1013.7 6.4 SE 17.7 0.0
17:25 28.4 61.0 1013.8 16.1 SE 17.7 0.0
17:30 28.2 61.0 1013.6 11.3 E 17.7 0.0
17:35 28.1 62.0 1013.7 4.8 ESE 17.7 0.0
17:40 28.0 62.0 1013.7 8.0 SSE 16.1 0.0
17:45 27.9 63.0 1013.7 9.7 ESE 17.7 0.0
17:50 27.9 63.0 1013.7 9.7 ESE 17.7 0.0
17:55 27.8 63.0 1013.7 12.9 SE 16.1 0.0
18:00 27.7 64.0 1013.8 4.8 ESE 14.5 0.0
18:05 27.6 64.0 1013.9 6.4 SE 12.9 0.0
18:10 27.6 65.0 1013.8 3.2 SE 11.3 0.0
18:15 27.4 65.0 1013.9 3.2 ESE 11.3 0.0
18:20 27.3 65.0 1013.9 4.8 SE 12.9 0.0
18:25 27.3 66.0 1013.9 3.2 SE 11.3 0.0
18:30 27.1 66.0 1014.0 6.4 S 12.9 0.0
18:35 26.9 67.0 1013.9 3.2 S 12.9 0.0
18:40 26.7 67.0 1014.1 1.6 ESE 12.9 0.0
18:45 26.6 67.0 1014.0 1.6 ESE 11.3 0.0
18:50 26.4 67.0 1013.9 11.3 SE 11.3 0.0
18:55 26.3 68.0 1014.0 1.6 SE 11.3 0.0
19:00 26.1 68.0 1014.1 1.6 SE 9.7 0.0
19:05 26.0 68.0 1014.3 1.6 SE 6.4 0.0
19:10 25.9 69.0 1014.2 4.8 ESE 4.8 0.0
19:15 25.7 69.0 1014.4 3.2 SE 6.4 0.0
19:20 25.4 69.0 1014.3 3.2 SE 6.4 0.0
19:25 25.2 69.0 1014.2 4.8 ESE 6.4 0.0
19:30 25.1 70.0 1014.3 1.6 ESE 6.4 0.0
19:35 25.0 70.0 1014.2 1.6 ESE 6.4 0.0
19:40 24.9 71.0 1014.2 0.0 ESE 4.8 0.0
19:45 24.8 71.0 1014.3 1.6 ESE 3.2 0.0
19:50 24.7 71.0 1014.3 1.6 ESE 4.8 0.0
19:55 24.6 72.0 1014.4 4.8 ESE 8.0 0.0
20:00 24.4 73.0 1014.4 4.8 SE 8.0 0.0
20:05 24.2 73.0 1014.5 0.0 ESE 6.4 0.0
20:10 24.1 74.0 1014.5 0.0 ESE 4.8 0.0
20:15 24.1 74.0 1014.5 0.0 ESE 1.6 0.0
20:20 23.9 74.0 1014.5 0.0 ESE 1.6 0.0
20:25 23.8 74.0 1014.4 0.0 ESE 1.6 0.0
20:30 23.7 75.0 1014.6 0.0 ESE 1.6 0.0
20:35 23.4 75.0 1014.6 0.0 ESE 0.0 0.0
20:40 23.3 76.0 1014.6 0.0 ESE 1.6 0.0
20:45 23.1 77.0 1014.6 1.6 ESE 3.2 0.0
20:50 22.9 77.0 1014.6 0.0 ESE 4.8 0.0
20:55 22.8 78.0 1014.7 0.0 ESE 1.6 0.0
21:00 22.6 78.0 1014.7 0.0 ESE 0.0 0.0
21:05 22.4 78.0 1014.6 0.0 ESE 0.0 0.0
21:10 22.3 79.0 1014.7 1.6 ESE 1.6 0.0
21:15 22.1 79.0 1014.7 0.0 ESE 1.6 0.0
21:20 21.9 80.0 1014.6 0.0 ESE 1.6 0.0
21:25 21.7 80.0 1014.6 0.0 ESE 0.0 0.0
21:30 21.6 81.0 1014.5 0.0 ESE 0.0 0.0
21:35 21.4 81.0 1014.5 0.0 ESE 0.0 0.0
21:40 21.3 81.0 1014.5 0.0 ESE 0.0 0.0
21:45 21.2 81.0 1014.6 0.0 ESE 0.0 0.0
21:50 21.1 81.0 1014.6 0.0 ESE 0.0 0.0
21:55 21.0 82.0 1014.6 0.0 ESE 0.0 0.0
22:00 20.8 82.0 1014.7 0.0 ESE 0.0 0.0
22:05 20.8 82.0 1014.7 0.0 ESE 0.0 0.0
Máxima 35.2 94.0 1018.7 16.1 SE 25.7 0.0
Mínima 16.7 36.0 1013.5
Total 0.0